[[{"header":{"parameterUnit":"m.s-1","parameterCategory":1,"la1":30.2991,"la2":30.254,"lo1":-89.0895,"lo2":-89.0444,"dy":0.0017,"dx":0.0017,"nx":28,"ny":28,"refTime":"2025-01-21T03:00:00:Z","depth":0,"parameterNumber":2,"parameterNumberName":"U-component_of_WINDS"},"data":[0,0,0,0,0,0,0,0,0,0,0,0,0,0,0,0,0,0,0,0,0,0,0,0,0,0,0,0,0,0,0,0,0,0,0,0,0,0,0,0,0,0,0,0,0,0,0,0,0,0,0,0,0,0,0,0,0,0,-2.8191,-2.8191,0,-2.8181,-2.8181,-2.818,-2.8085,-2.8083,-2.808,-2.8078,-2.8069,-2.8071,-2.8073,0,0,0,0,0,0,0,0,0,0,0,0,0,-2.8129,-2.8131,-2.8191,-2.8191,-2.8191,-2.8181,-2.8181,-2.818,-2.8086,-2.8083,-2.808,-2.8077,-2.8068,-2.8071,-2.8073,0,0,0,0,0,0,0,0,0,0,0,0,0,-2.8141,-2.8132,-2.8191,-2.8142,-2.8138,-2.8181,-2.8181,-2.818,-2.8086,-2.8083,-2.8079,-2.8076,-2.8068,-2.807,-2.8073,-2.8163,0,0,-2.8082,-2.8084,0,0,0,0,0,0,0,0,-2.8141,-2.8144,-2.815,-2.8146,-2.8141,-2.813,-2.8155,-2.8175,-2.8087,-2.8106,-2.8078,-2.8074,-2.8092,-2.8093,-2.8099,-2.8162,-2.8162,-2.8083,-2.8084,-2.8086,-2.8087,0,0,0,0,0,0,0,-2.814,-2.8144,-2.8187,-2.815,-2.8144,-2.8121,-2.8119,-2.8159,-2.8119,-2.8104,-2.8097,-2.8097,-2.8089,-2.8096,-2.8098,-2.8162,-2.8083,-2.8085,-2.8087,-2.8088,-2.8298,-2.8301,0,0,0,0,0,0,-2.8146,-2.8144,-2.8187,-2.8187,-2.8132,-2.8125,-2.8122,-2.8137,-2.8119,-2.8112,-2.81,-2.8093,-2.8093,-2.8095,-2.8097,-2.8201,-2.8086,-2.8088,-2.809,-2.8294,-2.8299,-2.8303,0,0,0,0,0,0,-2.8145,-2.8151,-2.8188,-2.8163,-2.8166,-2.813,-2.8147,-2.8139,-2.8146,-2.8116,-2.8108,-2.8114,-2.809,-2.8093,-2.8147,-2.8199,-2.809,-2.8092,-2.829,-2.8295,-2.8301,-2.8409,0,0,0,0,0,0,-2.8144,-2.8151,-2.8185,-2.8165,-2.8168,-2.8238,-2.8151,-2.8141,-2.8151,-2.8141,-2.8127,-2.8121,-2.8088,-2.8143,-2.815,-2.8202,-2.8095,-2.8285,-2.8292,-2.8299,-2.8401,-2.8418,-2.8433,0,0,0,0,0,-2.8142,-2.8216,-2.8187,-2.8193,-2.8209,-2.8241,-2.8243,-2.8202,-2.8156,-2.8189,-2.817,-2.8122,-2.8192,-2.815,-2.8156,-2.821,-2.8281,-2.829,-2.8298,-2.8394,-2.8415,-2.8432,0,0,0,0,0,0,-2.8244,-2.8213,-2.818,-2.825,-2.8249,-2.8225,-2.8266,-2.8226,-2.8238,-2.8229,-2.8178,-2.8175,-2.8237,-2.8228,-2.8181,-2.8295,-2.8228,-2.8239,-2.8299,-2.8318,-2.8334,-2.8335,-2.8097,0,0,0,0,0,-2.8275,-2.8303,-2.8274,-2.8339,-2.8339,-2.8303,-2.8316,-2.8284,-2.8281,-2.828,-2.8264,-2.8264,-2.8285,-2.8301,-2.832,-2.8399,-2.8394,-2.8439,-2.8454,-2.8468,-2.8478,-2.8519,-2.8538,-2.8331,-2.8331,-2.8331,0,0,-2.8339,-2.8325,-2.8346,-2.8359,-2.8354,-2.8385,-2.8304,-2.8339,-2.8362,-2.8286,-2.8336,-2.8324,-2.832,-2.8387,-2.8416,-2.8382,-2.8534,-2.8478,-2.8489,-2.8492,-2.853,-2.8549,-2.8567,-2.8337,-2.8336,-2.8335,0,0,-2.8471,-2.8463,-2.8516,-2.8513,-2.8506,-2.8481,-2.8494,-2.8476,-2.8465,-2.8514,-2.8458,-2.8484,-2.8522,-2.8521,-2.8526,-2.8657,-2.8614,-2.8664,-2.8748,-2.8789,-2.8805,-2.8819,-2.8867,-2.8884,-2.8674,-2.8674,-2.8674,0,-2.8551,-2.8595,-2.8548,-2.8588,-2.8595,-2.8527,-2.858,-2.8579,-2.858,-2.8587,-2.8548,-2.8595,-2.8587,-2.8653,-2.8685,-2.8691,-2.8704,-2.8666,-2.8806,-2.882,-2.8833,-2.8877,-2.8895,-2.868,-2.868,-2.8679,-2.8678,0,-2.8694,-2.8725,-2.8768,-2.877,-2.8782,-2.8828,-2.8789,-2.8807,-2.8774,-2.8753,-2.8804,-2.8792,-2.8807,-2.882,-2.8788,-2.8881,-2.886,-2.8815,-2.8747,-2.886,-2.8901,-2.8917,-2.8689,-2.8687,-2.8685,-2.8684,0,0,-2.8892,-2.8866,-2.8883,-2.8883,-2.887,-2.8893,-2.8936,-2.895,-2.8966,-2.8968,-2.9004,-2.9037,-2.8995,-2.9,-2.8968,-2.9004,-2.9109,-2.8954,-2.8953,-2.8984,-2.9211,-2.9246,-2.9267,-2.9079,-2.9082,-2.9085,-2.9212,0,-2.902,-2.9092,-2.9051,-2.9128,-2.9157,-2.9091,-2.9128,-2.9125,-2.9107,-2.9128,-2.9107,-2.9132,-2.9074,-2.9077,-2.9109,-2.9089,-2.9154,-2.9079,-2.9112,-2.9114,-2.9117,-2.9288,-2.9325,-2.9446,-2.9227,-2.923,-2.9232,0,-2.9179,-2.9187,-2.9268,-2.9249,-2.9259,-2.9294,-2.9303,-2.9324,-2.9318,-2.9302,-2.9308,-2.9267,-2.9308,-2.924,-2.9296,-2.9246,-2.9257,-2.9249,-2.9253,-2.9255,-2.9181,-2.9296,-2.9483,-2.9502,-2.9256,-2.9254,-2.9253,0,-2.9317,-2.9348,-2.94,-2.9401,-2.9381,-2.9406,-2.9399,-2.939,-2.94,-2.9408,-2.9415,-2.9428,-2.9435,-2.9446,-2.9409,-2.9363,-2.9471,-2.94,-2.9459,-2.9461,-2.9486,-2.9485,-2.9679,-2.9491,-2.9491,-2.9491,-2.949,0,-2.9464,-2.9517,-2.9461,-2.9494,-2.955,-2.9502,-2.9559,-2.9544,-2.9537,-2.9565,-2.9509,-2.9537,-2.9486,-2.951,-2.9481,-2.9532,-2.9536,-2.9524,-2.9517,-2.953,-2.9532,-2.9538,-2.9529,-2.9496,-2.9495,-2.9494,-2.9493,0,-2.9628,-2.9593,-2.9646,-2.9621,-2.9616,-2.9659,-2.9638,-2.9667,-2.9644,-2.9681,-2.9687,-2.9651,-2.9675,-2.9639,-2.9659,-2.964,-2.9711,-2.969,-2.9713,-2.9707,-2.9769,-2.9765,-2.9974,-3.0,-2.9795,-2.9797,-2.9799,0,-2.9726,-2.9764,-2.9743,-2.9758,-2.9754,-2.9778,-2.9788,-2.9742,-2.9755,-2.9751,-2.9781,-2.98,-2.9813,-2.9855,-2.9831,-2.9846,-2.9825,-2.9898,-2.9828,-2.984,-2.9828,-2.9826,-2.983,-2.9913,-2.9915,-2.9917,-2.9919,0,-2.9902,-2.9883,-2.9899,-2.991,-2.9923,-2.993,-2.9932,-2.9947,-2.9898,-2.9916,-2.9939,-2.995,-2.997,-2.999,-2.9999,-2.9991,-2.9948,-2.9941,-2.9956,-2.9971,-2.9983,-2.9978,-2.9754,-2.9937,-2.9935,-2.9934,-2.9933,-2.9932,-3.0037,-3.0067,-3.0057,-3.0078,-3.0074,-3.0077,-3.0103,-3.0083,-3.0101,-3.0114,-3.0085,-3.0116,-3.0108,-3.0116,-3.0113,-3.0137,-3.0105,-3.0126,-3.0132,-3.0138,-3.0148,-2.9978,-3.0138,-3.0138,-3.0137,-3.0137,-3.0136,0,-3.0211,-3.0201,-3.022,-3.0224,-3.024,-3.0196,-3.0196,-3.0212,-3.024,-3.0236,-3.025,-3.0277,-3.0296,-3.0273,-3.0288,-3.0311,-3.0291,-3.0317,-3.0315,-3.0314,-3.0175,-3.0162,-3.0332,-3.0332,-3.0332,-3.0332,-3.0332,-3.0332,-3.0304,-3.0354,-3.0333,-3.0381,-3.037,-3.0399,-3.0403,-3.0405,-3.0402,-3.0435,-3.045,-3.0434,-3.0423,-3.0436,-3.0452,-3.0445,-3.0453,-3.0486,-3.0472,-3.0343,-3.0324,-3.0306,-3.0293,-3.0488,-3.0488,-3.0609,-3.061,-3.0611]},{"header":{"parameterUnit":"m.s-1","parameterCategory":1,"la1":30.2991,"la2":30.254,"lo1":-89.0895,"lo2":-89.0444,"dy":0.0017,"dx":0.0017,"nx":28,"ny":28,"refTime":"2025-01-21T03:00:00:Z","depth":0,"parameterNumber":3,"parameterNumberName":"V-component_of_WINDS"},"data":[0,0,0,0,0,0,0,0,0,0,0,0,0,0,0,0,0,0,0,0,0,0,0,0,0,0,0,0,0,0,0,0,0,0,0,0,0,0,0,0,0,0,0,0,0,0,0,0,0,0,0,0,0,0,0,0,0,0,-8.2768,-8.2768,0,-8.2806,-8.2807,-8.2807,-8.2686,-8.2682,-8.2678,-8.2675,-8.2711,-8.2715,-8.272,0,0,0,0,0,0,0,0,0,0,0,0,0,-8.2586,-8.259,-8.2768,-8.2768,-8.2769,-8.2806,-8.2807,-8.2807,-8.2686,-8.2682,-8.2678,-8.2673,-8.271,-8.2715,-8.272,0,0,0,0,0,0,0,0,0,0,0,0,0,-8.2649,-8.2591,-8.2768,-8.2713,-8.2709,-8.2806,-8.2807,-8.2807,-8.2687,-8.2682,-8.2676,-8.2671,-8.2708,-8.2714,-8.2721,-8.2872,0,0,-8.2741,-8.2744,0,0,0,0,0,0,0,0,-8.2645,-8.2656,-8.2721,-8.2717,-8.2712,-8.2736,-8.2756,-8.2829,-8.2689,-8.2695,-8.2675,-8.2669,-8.2724,-8.2729,-8.2748,-8.2873,-8.2875,-8.2742,-8.2746,-8.2748,-8.275,0,0,0,0,0,0,0,-8.2641,-8.2653,-8.2783,-8.2722,-8.2717,-8.2685,-8.2688,-8.2769,-8.274,-8.2694,-8.2686,-8.2692,-8.272,-8.2742,-8.2748,-8.2875,-8.2741,-8.2747,-8.2751,-8.2754,-8.3125,-8.313,0,0,0,0,0,0,-8.2644,-8.265,-8.2782,-8.2784,-8.2665,-8.2693,-8.2696,-8.2734,-8.2739,-8.2734,-8.2697,-8.2686,-8.2733,-8.274,-8.2748,-8.2924,-8.2748,-8.2754,-8.2758,-8.3119,-8.3126,-8.3132,0,0,0,0,0,0,-8.2641,-8.2657,-8.278,-8.2715,-8.2728,-8.2702,-8.2745,-8.2737,-8.2759,-8.274,-8.2734,-8.2724,-8.2729,-8.2739,-8.2842,-8.2923,-8.2757,-8.2763,-8.3112,-8.3121,-8.3129,-8.3277,0,0,0,0,0,0,-8.2636,-8.2657,-8.2715,-8.2717,-8.2732,-8.2874,-8.275,-8.2742,-8.2771,-8.2757,-8.2765,-8.2761,-8.2725,-8.2833,-8.2848,-8.293,-8.2769,-8.3104,-8.3116,-8.3126,-8.3265,-8.329,-8.3312,0,0,0,0,0,-8.263,-8.2755,-8.2719,-8.2735,-8.2804,-8.2879,-8.2888,-8.2846,-8.2778,-8.2835,-8.2823,-8.276,-8.2912,-8.2844,-8.2861,-8.2945,-8.3099,-8.3113,-8.3126,-8.3254,-8.3285,-8.3311,0,0,0,0,0,0,-8.2762,-8.2754,-8.2714,-8.2843,-8.2863,-8.2859,-8.293,-8.288,-8.2919,-8.2904,-8.285,-8.2852,-8.2964,-8.2965,-8.2889,-8.3091,-8.2994,-8.3011,-8.3086,-8.3115,-8.3138,-8.3135,-8.2774,0,0,0,0,0,-8.2806,-8.2869,-8.2858,-8.2973,-8.2985,-8.2957,-8.2988,-8.2954,-8.2971,-8.2979,-8.2974,-8.2993,-8.3045,-8.308,-8.3127,-8.3265,-8.3263,-8.3331,-8.3354,-8.3374,-8.3389,-8.346,-8.3489,-8.3176,-8.3176,-8.3176,0,0,-8.2898,-8.2901,-8.2944,-8.3,-8.3011,-8.3076,-8.2964,-8.3038,-8.3085,-8.299,-8.3086,-8.3084,-8.3101,-8.3222,-8.3274,-8.3225,-8.3475,-8.3391,-8.3406,-8.3411,-8.3477,-8.3506,-8.3533,-8.3185,-8.3184,-8.3182,0,0,-8.3098,-8.3108,-8.3204,-8.3218,-8.3237,-8.3216,-8.324,-8.3243,-8.3238,-8.3334,-8.3264,-8.3318,-8.3409,-8.3424,-8.3443,-8.3649,-8.3591,-8.3665,-8.3787,-8.3857,-8.3882,-8.3903,-8.3975,-8.4001,-8.3681,-8.3681,-8.3681,0,-8.3209,-8.3305,-8.3259,-8.3338,-8.3363,-8.3281,-8.3377,-8.3392,-8.3425,-8.3444,-8.3389,-8.3501,-8.3507,-8.3629,-8.3679,-8.3698,-8.3721,-8.3664,-8.3882,-8.3903,-8.3923,-8.399,-8.4017,-8.369,-8.3689,-8.3688,-8.3687,0,-8.344,-8.3508,-8.3583,-8.3618,-8.3652,-8.3739,-8.3705,-8.3744,-8.3708,-8.3693,-8.3791,-8.3795,-8.3841,-8.3867,-8.3832,-8.3984,-8.3953,-8.3892,-8.3793,-8.3962,-8.4024,-8.405,-8.3702,-8.3699,-8.3697,-8.3694,0,0,-8.3724,-8.3732,-8.376,-8.3774,-8.3789,-8.3839,-8.3922,-8.3967,-8.4002,-8.4027,-8.4094,-8.4172,-8.4115,-8.4137,-8.4102,-8.4164,-8.4324,-8.4094,-8.4093,-8.4135,-8.4491,-8.4537,-8.4568,-8.4287,-8.4292,-8.4296,-8.4489,0,-8.392,-8.4062,-8.4023,-8.4164,-8.4225,-8.4147,-8.4219,-8.4235,-8.4223,-8.4272,-8.4258,-8.4314,-8.4235,-8.4247,-8.4305,-8.4293,-8.4395,-8.4279,-8.4347,-8.435,-8.4344,-8.46,-8.4649,-8.4831,-8.4513,-8.4517,-8.452,0,-8.4167,-8.4203,-8.4351,-8.4354,-8.4378,-8.4443,-8.448,-8.4529,-8.4545,-8.4532,-8.4557,-8.4509,-8.4588,-8.4491,-8.4598,-8.452,-8.4546,-8.4544,-8.455,-8.4553,-8.4445,-8.461,-8.4888,-8.4915,-8.4559,-8.4556,-8.4553,0,-8.4357,-8.4442,-8.4541,-8.4556,-8.4563,-8.461,-8.4615,-8.4625,-8.4655,-8.4687,-8.4705,-8.4747,-8.4769,-8.4802,-8.4766,-8.4699,-8.4879,-8.4779,-8.4869,-8.487,-8.4909,-8.4907,-8.5195,-8.4929,-8.4929,-8.4928,-8.4928,0,-8.4579,-8.4673,-8.4627,-8.4688,-8.4789,-8.4742,-8.4844,-8.4839,-8.4849,-8.4907,-8.4842,-8.4897,-8.4848,-8.4898,-8.487,-8.4963,-8.4974,-8.4964,-8.4956,-8.497,-8.4971,-8.4985,-8.497,-8.4935,-8.4934,-8.4932,-8.4931,0,-8.4809,-8.4782,-8.4885,-8.4883,-8.4884,-8.4959,-8.4957,-8.5012,-8.4995,-8.5069,-8.5083,-8.5058,-8.5113,-8.5081,-8.5138,-8.5119,-8.5239,-8.5214,-8.5235,-8.5227,-8.5319,-8.531,-8.5624,-8.5663,-8.5374,-8.5377,-8.5379,0,-8.4952,-8.5022,-8.5027,-8.5061,-8.5071,-8.5127,-8.5156,-8.5113,-8.5146,-8.5169,-8.5221,-8.5272,-8.5309,-8.5402,-8.5387,-8.543,-8.5404,-8.5512,-8.541,-8.5422,-8.5404,-8.54,-8.5406,-8.5532,-8.5535,-8.5538,-8.554,0,-8.5208,-8.5191,-8.5236,-8.5278,-8.5315,-8.5345,-8.537,-8.5401,-8.5358,-8.5398,-8.5455,-8.5484,-8.5542,-8.5592,-8.5629,-8.5632,-8.5579,-8.5572,-8.5595,-8.5609,-8.5617,-8.5613,-8.5289,-8.5565,-8.5562,-8.5561,-8.5559,-8.5558,-8.5397,-8.5455,-8.5467,-8.552,-8.5534,-8.5558,-8.561,-8.56,-8.5647,-8.5691,-8.5662,-8.5728,-8.5741,-8.5784,-8.5794,-8.5845,-8.5801,-8.5835,-8.5843,-8.5852,-8.5864,-8.5611,-8.5851,-8.5851,-8.585,-8.5849,-8.5849,0,-8.5648,-8.5652,-8.5701,-8.5738,-8.5779,-8.5726,-8.575,-8.5788,-8.5847,-8.5864,-8.5902,-8.5967,-8.6015,-8.6004,-8.6047,-8.609,-8.6066,-8.6102,-8.6098,-8.6099,-8.5901,-8.5876,-8.612,-8.612,-8.612,-8.612,-8.612,-8.612,-8.5783,-8.5878,-8.5863,-8.5963,-8.5966,-8.6031,-8.6049,-8.607,-8.6083,-8.6158,-8.6198,-8.6191,-8.6196,-8.6239,-8.628,-8.6276,-8.6294,-8.6339,-8.6326,-8.614,-8.6113,-8.6088,-8.6064,-8.6344,-8.6344,-8.6519,-8.6521,-8.6522]}]]